Flag for Germany Weather past 2 weeks in Mechernich, North Rhine-Westphalia, Germany

Now
64 °F

Broken clouds.


Feels Like: 64 °F
Forecast: 48 / 63 °F
Wind: 8 mph from West

Location: Noervenich

Current Time: Sep 1, 2015 at 4:27:21 PM

Latest Report: Sep 1, 2015 at 4:00 PM


Visibility: N/A

Pressure: 29.95 "Hg

Humidity: 83%

Dew point: 59 °F

Location of MechernichLocation

Historic Weather in Mechernich — Graph

°F

Mechernich temperature yesterday

Maximum temperature yesterday: 88 °F (at 1:20 PM)
Minimum temperature yesterday: 63 °F (at 7:20 AM)
Average temperature yesterday: 76 °F

Past Weeks' High & Low Weather Summary

 TemperatureHumidityPressure
High91 °F (Aug 30, 3:20 PM)100% (Aug 17, 4:20 PM)30.24 "Hg (Aug 17, 4:20 PM)
Low48 °F (Aug 19, 6:20 AM)30% (Aug 23, 3:20 PM)29.53 "Hg (Aug 24, 2:20 PM)
Average66 °F73%29.97 "Hg
* Reported Aug 17 2:20 PM — Sep 1 2:20 PM, Mechernich, Weather by CustomWeather, © 2015

Note: Actual official high and low records may vary slightly from our data, if they occured in-between our weather recording intervals... More about our weather records

Advertising

Mechernich weather history for previous 24 hours

 ConditionsComfort  
Time TempWeatherWind HumidityBarometerVisibility
2:20 PM
Tue, Sep 1
61 °FBroken clouds.7 mph94%29.92 "HgN/A
1:20 PM61 °FLight rain. Broken clouds.5 mph94%29.89 "HgN/A
12:20 PM59 °FRain. More clouds than sun.6 mph100%29.89 "Hg6 mi
11:20 AM59 °FRain. Partly sunny.6 mph100%29.86 "Hg5 mi
10:20 AM59 °FHeavy rain. Fog.7 mph100%29.86 "Hg2 mi
9:20 AM61 °FLight rain. Partly sunny.8 mph94%29.83 "HgN/A
8:20 AM61 °FLight rain. Mostly cloudy.6 mph94%29.83 "Hg4 mi
7:20 AM61 °FRain. Passing clouds.6 mph94%29.86 "Hg4 mi
6:20 AM63 °FPassing clouds.7 mph88%29.83 "HgN/A
5:20 AM64 °FPassing clouds.6 mph83%29.86 "HgN/A
4:20 AM64 °FPartly cloudy.9 mph83%29.83 "HgN/A
3:20 AM66 °FPassing clouds.9 mph83%29.83 "HgN/A
2:20 AM68 °FPassing clouds.2 mph88%29.83 "HgN/A
1:20 AM68 °FPassing clouds.3 mph88%29.83 "HgN/A
12:20 AM70 °FPassing clouds.8 mph83%29.83 "HgN/A
11:20 PM
Mon, Aug 31
70 °FPassing clouds.7 mph83%29.83 "HgN/A
10:20 PM72 °FPassing clouds.12 mph78%29.83 "HgN/A
9:20 PM72 °FPartly sunny.7 mph73%29.83 "HgN/A
8:20 PM73 °FPartly sunny.13 mph69%29.83 "HgN/A
7:20 PM82 °FScattered clouds.7 mph42%29.77 "HgN/A
6:20 PM86 °FPassing clouds.8 mph35%29.77 "HgN/A
5:20 PM88 °FPassing clouds.9 mph33%29.77 "HgN/A
4:20 PM88 °FScattered clouds.9 mph33%29.80 "HgN/A
Weather by CustomWeather, © 2015

See weather overviewHow to use our weather pages